User: anonymous   Login
Location: Arbon
(43.0005°N, 0.7472°E)
Time: 13:30:51
(UTC+00:00)
Language:

Meteor 1-28 Rocket - Orbit

View from above orbital plane
View from above orbital plane
View from above satellite
View from above satellite

Ground track
Ground track

The orbit data is extracted from the following two-line orbital elements,

1 10114U 77057B   20294.87652258 +.00000364 +00000-0 +21374-4 0  9997
2 10114 097.3255 079.6728 0014183 017.6422 342.5302 15.17550964368793
Epoch (UTC): 20 October 2020 21:02:11
Eccentricity: 0.0014183
inclination: 97.3255°
perigee height: 503 km
apogee height: 523 km
right ascension of ascending node: 79.6728°
argument of perigee: 17.6422°
revolutions per day: 15.17550964
mean anomaly at epoch: 342.5302°
orbit number at epoch: 36879

The dashed part of the orbit path shows where the satellite is in the earth's shadow,  

DLR